CZ-3B DEB, 40179

Orbit data source: Space-Track

CZ-3B DEB, 40179 is space debris in HEO originally from a launch on Mon, 19 Dec 2011 UTC launched from the Xichang Space Center, China (XSC). Debris objects in space refer to the collection of defunct objects orbiting the Earth. Examples of debris include non-operational satellites, rocket bodies, and fragments generated from explosions, collisions, or faulty payload assembly.

Loading next visibility...
Identifier
40179, 2011-077C
Orbit
HEO
Country
Flag of CNCN / PRC
Related business
Manufacturer
CALT
Mission
Spacecraft
Bus & Motor
Unknown
Mass
Unknown
Launch date (UTC)
2011-12-19 (14 years ago)
Launch vehicle
Unknown
Launch site
Xichang Space Center, China (XSC)
Object type
Payload
Rocket body
Debris
Shape & HBR
Unknown shape, 0.3 m
Radar Cross Section
Medium (>0.1 m² and <1 m²)

Expand to show TLE details & history
Last TLE update: 1 day ago

TLE from 1 day ago
0 CZ-3B DEB
1 40179U 11077C   25351.32798798 -.00000105  00000-0  35351-2 0  9992
2 40179  26.3748 347.9186 7418324  64.2807 352.4692  1.91893646 84614
Epoch: 2025-12-17T07:52Z
TLE epoch observation values (Epoch: 2025-12-17T07:52:18.161Z)
Latitude
0.00002°
Longitude
143.60958°
Altitude
2,899.78 km
Speed
8.447 km/s
True Right ascension
23h 11m 32s
True Declination
0° 00' 00"
Sunlit
Object was in daylight at epoch
Visualization orbit readout
Latitude
Unknown
Longitude
Unknown
Altitude
Unknown
Speed
Unknown
Apparent Right ascension
Unknown
Apparent Declination
Unknown
Sunlit
N/A
Visualization observer readout
Local Sidereal Time
15:48:02
Azimuth
Unknown
Elevation
Unknown
Doppler factor
Unknown
Orbital elements
Apogee altitude
41,275.321 km
Perigee altitude
684.873 km
Semi-major axis
27,358.234 km
Eccentricity
0.74183
Inclination
26.3748°
RAAN
347.9186°
Arg. of periapsis
64.2807°
True anomaly
297.12212°
Mean anomaly
352.4692°
Eccentric anomaly
333.5121°
Mean motion
0.47964 °/min
Orbital period
750.57 mins
BSTAR
0.0035351
Loading maneuver chart data...
Computing Atmospheric mass density...
Loading historical data...
Loading historical data...
Loading historical data...
Loading historical data...
Loading historical data...
Loading historical data...
Loading historical data...

Documentation

Showing up to 5 results
|